WA4OPQ-3 Weather Reports


Display with metric or nautical units.
time (UTC)temp
F
wind
direction
speed
MPH
gust
MPH
rain 1hr
in
rain 24hr
in
rain mn
in
humidity
%
barometer
mb
20260504120143 50 146 0.0 0.0 0.00 0.00 0.00 94 1013.6
20260504110114 48 145 0.0 0.0 0.00 0.00 0.00 95 1013.0
20260504081952 49 197 0.0 0.0 0.00 0.00 0.00 89 1013.2
20260504080947 49 197 0.0 0.0 0.00 0.00 0.00 89 1013.2
20260504045811 49 180 0.0 0.0 0.00 0.00 0.00 88 1014.8
20260504044807 50 180 0.0 0.0 0.00 0.00 0.00 88 1014.8
20260504043802 50 180 0.0 0.0 0.00 0.00 0.00 87 1014.8
20260504042756 50 180 0.0 0.0 0.00 0.00 0.00 87 1014.8
20260504041751 50 180 0.0 0.0 0.00 0.00 0.00 87 1014.8
20260504040745 50 180 0.0 0.0 0.00 0.00 0.00 87 1014.6
20260504035741 50 180 0.0 0.0 0.00 0.00 0.00 88 1014.7
20260504034737 50 180 0.0 0.0 0.00 0.00 0.00 88 1014.7
20260504033731 50 180 0.0 0.0 0.00 0.00 0.00 88 1014.8
20260504032727 50 174 0.0 0.0 0.00 0.00 0.00 88 1015.2
20260504031722 50 173 0.0 0.0 0.00 0.00 0.00 87 1015.0
20260504030716 50 173 0.0 0.0 0.00 0.00 0.00 88 1015.1
20260504025711 49 173 0.0 0.0 0.00 0.00 0.00 88 1015.0
20260504024706 49 172 0.0 0.0 0.00 0.00 0.00 87 1015.0
20260504023700 50 173 0.0 0.0 0.00 0.00 0.00 88 1015.3
20260504022656 50 173 0.0 1.0 0.00 0.00 0.00 87 1015.0
20260504021651 50 199 0.0 1.0 0.00 0.00 0.00 87 1015.2
20260504020646 50 199 0.0 0.0 0.00 0.00 0.00 86 1015.1
20260504015640 50 199 0.0 0.0 0.00 0.00 0.00 85 1015.1
20260504014635 51 199 0.0 0.0 0.00 0.00 0.00 83 1015.0
20260504013630 52 199 0.0 0.0 0.00 0.00 0.00 81 1015.0
20260504012626 53 199 0.0 0.0 0.00 0.00 0.00 79 1014.9
20260504011620 53 199 0.0 0.0 0.00 0.00 0.00 77 1015.1
20260504010615 54 200 0.0 0.0 0.00 0.00 0.00 75 1014.8
20260504005610 55 200 0.0 0.0 0.00 0.00 0.00 72 1014.8
20260504004606 56 200 0.0 0.0 0.00 0.00 0.00 70 1014.8
20260504003600 57 200 0.0 0.0 0.00 0.00 0.00 66 1014.7
20260504002555 58 200 0.0 0.0 0.00 0.00 0.00 66 1014.9
20260504001551 60 201 0.0 0.0 0.00 0.00 0.00 61 1014.9
20260504000547 61 201 0.0 1.0 0.00 0.00 0.00 58 1015.0
20260503235541 62 201 0.0 1.0 0.00 0.00 0.00 56 1014.8
20260503234536 63 217 0.0 3.0 0.00 0.00 0.00 53 1015.1
20260503233532 64 229 0.0 4.0 0.00 0.00 0.00 52 1015.3
20260503232526 65 128 1.0 7.0 0.00 0.00 0.00 46 1014.9
20260503231521 65 49 1.0 3.0 0.00 0.00 0.00 49 1015.2
20260503230516 65 194 0.0 4.0 0.00 0.00 0.00 49 1015.4
20260503225510 65 206 1.0 1.0 0.00 0.00 0.00 46 1015.1
20260503224505 66 197 1.0 10.0 0.00 0.00 0.00 45 1015.4
20260503223500 66 242 0.0 7.0 0.00 0.00 0.00 43 1015.4
20260503222456 67 201 0.0 7.0 0.00 0.00 0.00 46 1015.6
20260503221452 67 169 1.0 7.0 0.00 0.00 0.00 46 1015.7
20260503220447 67 212 1.0 7.0 0.00 0.00 0.00 43 1015.9
20260503215440 67 235 4.0 7.0 0.00 0.00 0.00 42 1015.9
20260503214436 67 212 0.0 10.0 0.00 0.00 0.00 41 1016.4
20260503213431 69 167 0.0 3.0 0.00 0.00 0.00 43 1016.3
20260503212426 69 77 0.0 10.0 0.00 0.00 0.00 42 1016.5
20260503211420 70 12 3.0 7.0 0.00 0.00 0.00 39 1016.7
20260503210415 69 299 0.0 11.0 0.00 0.00 0.00 38 1016.8
20260503205410 70 325 4.0 6.0 0.00 0.00 0.00 40 1016.9
20260503204406 70 201 1.0 7.0 0.00 0.00 0.00 39 1017.0
20260503203401 70 237 4.0 7.0 0.00 0.00 0.00 39 1017.2
20260503202356 70 204 1.0 8.0 0.00 0.00 0.00 39 1017.2
20260503201350 69 119 2.0 9.0 0.00 0.00 0.00 39 1017.3
20260503200345 69 205 1.0 7.0 0.00 0.00 0.00 39 1017.7
20260503195340 68 92 0.0 9.0 0.00 0.00 0.00 40 1017.9
20260503194337 69 295 2.0 9.0 0.00 0.00 0.00 38 1018.0
20260503193332 68 198 5.0 15.0 0.00 0.00 0.00 37 1018.4
20260503192325 68 33 3.0 9.0 0.00 0.00 0.00 41 1018.6
20260503191322 67 195 3.0 18.0 0.00 0.00 0.00 40 1018.5
20260503190316 69 167 4.0 7.0 0.00 0.00 0.00 47 1018.5
20260503185311 69 225 5.0 10.0 0.00 0.00 0.00 39 1019.0
20260503184305 67 96 0.0 11.0 0.00 0.00 0.00 40 1018.7
20260503183301 67 178 7.0 13.0 0.00 0.00 0.00 41 1019.2
20260503182255 67 215 4.0 11.0 0.00 0.00 0.00 40 1019.3
20260503181250 66 242 3.0 10.0 0.00 0.00 0.00 41 1019.3
20260503180246 67 178 2.0 7.0 0.00 0.00 0.00 43 1019.7
20260503175241 66 195 1.0 5.0 0.00 0.00 0.00 43 1019.4
20260503174236 67 64 1.0 9.0 0.00 0.00 0.00 44 1019.8
20260503173231 65 121 6.0 14.0 0.00 0.00 0.00 43 1019.7
20260503172225 65 201 2.0 11.0 0.00 0.00 0.00 41 1019.9
20260503171220 65 55 1.0 4.0 0.00 0.00 0.00 46 1020.0
20260503170216 64 169 3.0 11.0 0.00 0.00 0.00 41 1020.4
20260503160146 62 200 4.0 5.0 0.00 0.00 0.00 45 1021.0
20260503150117 60 185 1.0 7.0 0.00 0.00 0.00 50 1021.2
20260503131020 46 103 0.0 0.0 0.00 0.00 0.00 93 1021.2